Voltar ao catálogo

POLAR SCOUT YUKON

AtivoCiênciaSSO
NORAD 43808·PAYLOAD·🇺🇸 United States

Lançado Dec 3, 2018 de Vandenberg Space Force Base

Loading…

Próximas Passagens (próximas 24 horas)

TLE

AtualizadoSource: Space-Track

Época: Sep 14, 2026, 04:04 UTC

1 43808U 18099BC  26257.17002404  .00018005  00000-0  43140-3 0  9999
2 43808  97.4614 331.7268 0004266  21.8885 338.2543 15.41470413427209

Acompanhe POLAR SCOUT YUKON em tempo real com AllMySat

Download on the App Store